Hourly Weather Roundup
Issued by NWS Central Illinois

Home | Current Version | Previous Version | Text Only | Print | Product List | Glossary On
Versions: 1 2 3 4 5 6 7 8 9 10 11 12 13 14 15 16 17 18 19 20 21 22 23 24 25 26 27 28 29 30 31 32 33 34 35 36 37 38 39 40 41 42 43 44 45 46 47 48 49 50
000
NZUS43 KILX 220510
HWRILX

Area Weather Roundup
National Weather Service Lincoln IL
1200 AM CDT SAT APR 22 2017

NOTE:  "FAIR" indicates few or no clouds below 12,000 feet, with
       no sigificant weather and/or obstructions to visibility.


CITY           SKY/WX    TMP DP  RH WIND       PRES   REMARKS
Bloomington    PTCLDY    45  34  65 NE14      30.12S
Champaign      CLOUDY    46  32  58 NE14      30.09F
Danville       CLOUDY    43  34  70 NE12      30.07F
Decatur        PTCLDY    47  34  60 NE18      30.09S
Effingham      CLOUDY    48  37  66 N6        30.07F
Flora          CLOUDY    50  42  73 NE8       30.04F
Galesburg      CLOUDY    45  37  73 NE6       30.11S
Jacksonville   CLOUDY    48  34  57 E14       30.10S
Lacon          CLOUDY    47  35  61 E10       30.12F
Lawrenceville  CLOUDY    48  41  76 NE14      30.03F
Litchfield     CLOUDY    48  34  57 NE9G21    30.08S
$$


CITY           SKY/WX    TMP DP  RH WIND       PRES   REMARKS
Lincoln        CLOUDY    47  36  64 NE8       30.12S
Macomb         CLOUDY    48  39  71 E7        30.13F
Mattoon        CLOUDY    46  35  65 NE13      30.06S
Mt Carmel AP   CLOUDY    48  41  76 NE9       30.01F
Olney-Noble AP CLOUDY    47  43  85 N9        30.04F
Paris AP       PTCLDY    46  35  66 NE13      30.07F
Peoria         MOCLDY    48  35  60 NE7       30.13R
Pontiac        CLOUDY    46  36  68 N6        30.14S
Rantoul        CLOUDY    47  35  61 NE9       30.09F
Robinson       CLOUDY    46  39  74 N8        30.06S
Springfield    CLOUDY    49  34  56 NE12      30.10S
Taylorville    CLOUDY    47  32  55 NE15G21   30.10R
$$

...REGIONAL REPORTS...


CITY           SKY/WX    TMP DP  RH WIND       PRES   REMARKS
Chicago O`Hare CLOUDY    46  33  60 N8        30.14R
Kankakee       CLOUDY    43  34  69 NE6       30.13S
Moline         CLOUDY    47  40  76 CALM      30.13S
Mount Sterling CLOUDY    48  36  62 E10       30.10S
Mount Vernon   CLOUDY    47  44  90 N8        30.05R
Pittsfield     CLOUDY    51  35  53 E12G17    30.11R
Quincy         CLOUDY    50  38  63 E9        30.10R
Rockford       CLOUDY    47  35  63 E3        30.18R
$$


CITY           SKY/WX    TMP DP  RH WIND       PRES   REMARKS
Burlington     CLOUDY    50  37  61 NE6       30.11F
Cedar Rapids   CLOUDY    49  38  65 N6        30.14R
Des Moines     CLOUDY    53  36  52 NE9       30.15R
Kirksville     CLOUDY    51  36  56 E12       30.10S
Ottumwa        CLOUDY    49  39  68 NE6       30.13R
St Louis       CLOUDY    52  45  77 NE8       30.07R
$$


CITY           SKY/WX    TMP DP  RH WIND       PRES   REMARKS
Terre Haute    CLOUDY    47  34  60 NE14      30.05F
Evansville     CLOUDY    52  49  89 N8        29.99F
Indianapolis   NOT AVBL
Lafayette      PTCLDY    43  35  73 NE8       30.09S
Madison        CLOUDY    45  36  70 E8        30.17R
Milwaukee      CLOUDY    44  33  65 N9        30.17R
$$






USA.gov is the U.S. government's official web portal to all federal, state and local government web resources and services.